Location: Newark
(25.4297°S, 49.2719°W)
Time: 06:21:21
(UTC+00:00)

Vanguard 1 Rocket - Pass Details

Date: 27 November 2019
Orbit: 650 x 4226 km, 34.3° (Epoch: 13 December)

Event Time Altitude Azimuth Distance (km) Brightness Sun altitude
Rises 21:25:04 0° 246° (WSW) 8,222 15.3 4.6°
Reaches altitude 10° 21:30:32 10° 246° (WSW) 7,359 14.8 3.5°
Maximum altitude 21:57:11 78° 327° (NNW) 3,805 10.6 -2.0°
Drops below altitude 10° 22:14:57 10° 51° (NE) 5,255 10.6 -5.7°
Enters shadow 22:16:25 - 52° (NE) 5,542 10.7 -6.0°
Sets 22:18:06 0° 53° (NE) 5,895 - -6.3°
